Location: ????????
(56.0167°N, 38.0333°E)
Time: 04:08:55
(UTC+00:00)

Cosmos 1992 Rocket - Pass Details

Date: 19 May 2025
Orbit: 755 x 761 km, 74.0° (Epoch: 15 June)

Event Time Altitude Azimuth Distance (km) Brightness Sun altitude
Rises 23:31:54 0° 331° (NNW) 3,234 7.7 -9.4°
Reaches altitude 10° 23:34:17 10° 330° (NNW) 2,303 6.9 -9.2°
Maximum altitude 23:39:30 80° 245° (WSW) 778 4.0 -8.8°
Drops below altitude 10° 23:44:41 10° 159° (SSE) 2,284 6.1 -8.4°
Sets 23:47:03 0° 158° (SSE) 3,204 6.9 -8.2°
